Flag for USA

Past Weather in Conroe, Texas, USA — Yesterday and Last 2 Weeks

Now
76 °F

Partly sunny.


Feels Like: 78 °F
Forecast: 82 / 66 °F
Wind: No wind

Location: Montgomery County Airport
Current Time: Sep 25, 2020 at 11:31:01 am
Latest Report: Sep 25, 2020 at 10:53 am
Visibility: 10 mi
Pressure30.02 "Hg
Humidity: 69%
Dew Point: 65 °F
Location of ConroeLocation

Past Weather in Conroe — Graph

°F

Conroe Temperature Yesterday

Maximum temperature yesterday: 74 °F (at 2:53 pm)
Minimum temperature yesterday: 67 °F (at 4:53 am)
Average temperature yesterday: 70 °F

High & Low Weather Summary for the Past Weeks

 TemperatureHumidityPressure
High95 °F (Sep 12, 3:53 pm)97% (Sep 17, 8:53 pm)30.15 "Hg (Sep 17, 8:53 pm)
Low63 °F (Sep 20, 6:53 am)34% (Sep 18, 2:53 pm)29.77 "Hg (Sep 23, 4:53 am)
Average77 °F80%29.95 "Hg
* Reported Sep 10 9:53 am — Sep 25 9:53 am, Conroe. Weather by CustomWeather, © 2020

Note: Actual official high and low records may vary slightly from our data, if they occured in-between our weather recording intervals... More about our weather records

Conroe Weather History for the Previous 24 Hours

Scroll right to see more
 ConditionsComfort  
Time TempWeatherWind HumidityBarometerVisibility
9:53 am
Fri, Sep 25
74 °FOvercast.No wind76%30.01 "Hg10 mi
8:53 am71 °FOvercast.3 mph84%30.00 "Hg10 mi
7:53 am69 °FOvercast.No wind90%29.98 "Hg10 mi
6:53 am69 °FOvercast.No wind90%29.97 "Hg10 mi
6:04 am69 °FOvercast.No wind90%29.96 "Hg10 mi
5:53 am69 °FOvercast.No wind90%29.95 "Hg10 mi
4:53 am69 °FOvercast.No wind90%29.93 "Hg10 mi
3:53 am69 °FOvercast.No wind93%29.93 "Hg10 mi
2:53 am70 °FOvercast.No wind90%29.93 "Hg10 mi
1:53 am70 °FOvercast.No wind90%29.93 "Hg10 mi
12:53 am70 °FOvercast.No wind90%29.94 "Hg10 mi
11:53 pm
Thu, Sep 24
70 °FOvercast.No wind90%29.95 "Hg10 mi
10:53 pm70 °FOvercast.No wind90%29.95 "Hg10 mi
9:53 pm70 °FOvercast.8 mph87%29.94 "Hg10 mi
8:53 pm70 °FOvercast.No wind90%29.93 "Hg10 mi
7:53 pm71 °FOvercast.3 mph84%29.91 "Hg10 mi
6:53 pm72 °FOvercast.No wind81%29.90 "Hg10 mi
5:53 pm73 °FOvercast.No wind79%29.90 "Hg10 mi
4:53 pm73 °FOvercast.3 mph76%29.90 "Hg10 mi
3:53 pm73 °FOvercast.5 mph76%29.90 "Hg10 mi
2:53 pm74 °FOvercast.7 mph74%29.91 "Hg10 mi
1:53 pm71 °FOvercast.7 mph81%29.93 "Hg10 mi
12:53 pm73 °FMostly cloudy.8 mph76%29.94 "Hg10 mi
12:19 pm72 °FMostly cloudy.8 mph78%29.95 "Hg10 mi
12:09 pm72 °FMostly cloudy.6 mph78%29.95 "Hg10 mi
11:53 am72 °FMostly cloudy.6 mph78%29.94 "Hg7 mi
11:26 am71 °FMostly cloudy.6 mph84%29.96 "Hg6 mi
Weather by CustomWeather, © 2020

See weather overview